Home   Weather   Fort Simpson   Past weeks

Flag for Canada Past Weather in Fort Simpson, Northwest Territories, Canada — Yesterday and Last 2 Weeks

Now
-13 °F

Sunny.


Feels Like: -13 °F
Forecast: -23 / -3 °F
Wind: 2 mph from North

Location: Fort Simpson

Current Time: Jan 21, 2017 at 12:41:17 pm

Latest Report: Jan 21, 2017 at 12:00 pm


Visibility: 15 mi

Pressure: 30.04 "Hg

Humidity: 76%

Dew Point: -18 °F

Location of Fort SimpsonLocation

Past Weather in Fort Simpson — Graph

°F

Fort Simpson Temperature Yesterday

Maximum temperature yesterday: 5 °F (at 12:00 am)
Minimum temperature yesterday: -4 °F (at 1:00 pm)
Average temperature yesterday: -1 °F

High & Low Weather Summary for the Past Weeks

 TemperatureHumidityPressure
High23 °F (Jan 10, 11:00 pm)86% (Jan 11, 1:00 am)30.89 "Hg (Jan 11, 1:00 am)
Low-26 °F (Jan 7, 9:00 am)50% (Jan 11, 5:00 am)29.10 "Hg (Jan 17, 4:00 am)
Average-6 °F75%29.82 "Hg
* Reported Jan 6 11:00 am — Jan 21 11:00 am, Fort Simpson, Weather by CustomWeather, © 2017

Note: Actual official high and low records may vary slightly from our data, if they occured in-between our weather recording intervals... More about our weather records

Advertising

Fort Simpson Weather History for the Previous 24 Hours

Scroll right to see more
 ConditionsComfort  
Time TempWeatherWind HumidityBarometerVisibility
11:00 am
Sat, Jan 21
-15 °FPassing clouds.No wind76%30.03 "Hg15 mi
10:00 am-15 °FPassing clouds.No wind76%30.00 "Hg15 mi
9:00 am-9 °FPassing clouds.No wind84%29.96 "Hg15 mi
8:00 am-6 °FPassing clouds.2 mph77%29.95 "Hg15 mi
7:00 am-6 °FPassing clouds.2 mph77%29.93 "Hg15 mi
6:51 am-4 °FPassing clouds.2 mph84%29.93 "Hg15 mi
6:00 am-2 °FLight snow. Passing clouds.5 mph77%29.91 "Hg15 mi
5:00 am0 °FLight snow. Mostly cloudy.7 mph78%29.89 "Hg6 mi
4:23 am0 °FLight snow. Overcast.2 mph78%29.88 "Hg4 mi
4:00 am0 °FLight snow. Overcast.3 mph78%29.87 "Hg3 mi
3:00 am-2 °FLight snow. Overcast.6 mph84%29.85 "Hg3 mi
2:00 am-2 °FLight snow. Overcast.6 mph77%29.84 "Hg3 mi
1:00 am-2 °FLight snow. Overcast.10 mph77%29.83 "Hg3 mi
12:00 am-2 °FLight snow. Overcast.13 mph77%29.81 "Hg2 mi
11:00 pm
Fri, Jan 20
-2 °FLight snow. Overcast.9 mph77%29.80 "Hg2 mi
10:33 pm-4 °FLight snow. Overcast.10 mph84%29.79 "Hg2 mi
10:00 pm-4 °FLight snow. Overcast.8 mph77%29.78 "Hg3 mi
9:00 pm-4 °FLight snow. Overcast.10 mph77%29.77 "Hg4 mi
8:00 pm-4 °FLight snow. Overcast.10 mph77%29.74 "Hg3 mi
7:00 pm-4 °FLight snow. Overcast.12 mph77%29.73 "Hg3 mi
6:33 pm-4 °FLight snow. Overcast.12 mph77%29.72 "Hg2 mi
6:00 pm-4 °FLight snow. Ice fog.14 mph77%29.71 "Hg1 mi
5:00 pm-4 °FLight snow. Overcast.16 mph71%29.69 "Hg5 mi
4:00 pm-4 °FLight snow. Ice fog.15 mph77%29.67 "Hg1 mi
3:13 pm-4 °FLight snow. Ice fog.15 mph77%29.66 "Hg1 mi
3:00 pm-4 °FLight snow. Overcast.15 mph77%29.66 "Hg3 mi
2:00 pm-4 °FLight snow. Mostly cloudy.16 mph77%29.63 "Hg15 mi
1:00 pm-4 °FLight snow. Overcast.17 mph77%29.61 "Hg15 mi
12:00 pm-2 °FLight snow. Overcast.16 mph71%29.59 "Hg15 mi
Weather by CustomWeather, © 2017

See weather overviewHow to use our weather pages